Weather History for San Angelo, TX

Change the Weather History Date:

Tuesday, October 5, 2010

  Actual Average Record
Temperature  
Mean Temperature 68 °F 70 °F  
Max Temperature 84 °F 82 °F 98 °F (1960)
Min Temperature 51 °F 57 °F 40 °F (1985)
Degree Days  
Heating Degree Days 0 1  
Month to date heating degree days 3 5  
Since 1 July heating degree days 3 14  
Cooling Degree Days 3 6  
Month to date cooling degree days 16 31  
Year to date cooling degree days 2832 2396  
Growing Degree Days 18 (Base 50)    
Moisture  
Dew Point 43 °F    
Average Humidity 50    
Maximum Humidity 77    
Minimum Humidity 23    
Precipitation  
Precipitation 0.00 in 0.08 in 3.11 in (1986)
Month to date precipitation 0.00 0.42  
Year to date precipitation 16.63 16.95  
Snow  
Snow 0.00 in 0.00 in 0.00 in (2002)
Month to date snowfall 0.0 0.0  
Since 1 July snowfall 0.0 0.0  
Snow Depth 0.00 in    
Sea Level Pressure  
Sea Level Pressure 30.22 in    
Wind  
Wind Speed 7 mph (SE)    
Max Wind Speed 15 mph    
Max Gust Speed 21 mph    
Visibility 10 miles    
Events      
T = Trace of Precipitation, MM = Missing Value Source: NWS Daily Summary

Daily Weather History Graph

Daily Weather History Graph

Search for Another Location

Airport:

Trip Planner

Search our weather history database for the weather conditions in past years. The results will help you decide how hot, cold, wet, or windy it might be!

Date:

Astronomy

Oct. 05, 2010 Rise Set
Actual Time 7:38 AM CDT 7:21 PM CDT
Civil Twilight 7:13 AM CDT 7:46 PM CDT
Nautical Twilight 6:45 AM CDT 8:14 PM CDT
Astronomical Twilight 6:17 AM CDT 8:42 PM CDT
Moon 5:10 AM CDT (10/5) 5:48 PM CDT (10/5)
Length of Visible Light 12h 32m
Length of Day
11h 43m
Waning Crescent, 6% of the Moon is Illuminated
Oct 5
Waning Crescent
Oct 7
New
Oct 14
First Quarter
Oct 22
Full
Oct 30
Last Quarter

Hourly Weather History & Observations

Time (CDT) Temp. Dew Point Humidity Pressure Visibility Wind Dir Wind Speed Gust Speed Precip Events Conditions
12:51 AM 63.0 °F 41.0 °F 45% 30.19 in 10.0 mi SE 10.4 mph - N/A   Clear
1:51 AM 61.0 °F 42.1 °F 50% 30.19 in 10.0 mi SE 6.9 mph - N/A   Clear
2:51 AM 60.1 °F 42.1 °F 51% 30.20 in 10.0 mi Variable 3.5 mph - N/A   Clear
3:51 AM 57.9 °F 42.1 °F 56% 30.19 in 10.0 mi ESE 3.5 mph - N/A   Clear
4:51 AM 57.0 °F 42.1 °F 57% 30.19 in 10.0 mi ESE 3.5 mph - N/A   Clear
5:51 AM 53.1 °F 42.1 °F 66% 30.21 in 10.0 mi East 3.5 mph - N/A   Clear
7:51 AM 51.1 °F 44.1 °F 77% 30.25 in 10.0 mi East 3.5 mph - N/A   Clear
8:51 AM 59.0 °F 46.0 °F 62% 30.27 in 10.0 mi SE 3.5 mph - N/A   Mostly Cloudy
9:51 AM 64.9 °F 44.1 °F 47% 30.28 in 10.0 mi SSE 9.2 mph - N/A   Clear
10:51 AM 70.0 °F 45.0 °F 41% 30.28 in 10.0 mi SSE 10.4 mph - N/A   Clear
11:51 AM 75.0 °F 46.0 °F 36% 30.27 in 10.0 mi South 9.2 mph - N/A   Clear
12:51 PM 77.0 °F 48.0 °F 36% 30.26 in 10.0 mi SSE 9.2 mph - N/A   Clear
1:51 PM 80.1 °F 48.0 °F 32% 30.23 in 10.0 mi SSE 10.4 mph - N/A   Clear
2:51 PM 82.9 °F 46.9 °F 28% 30.19 in 10.0 mi SSE 10.4 mph - N/A   Clear
3:51 PM 84.0 °F 44.1 °F 25% 30.17 in 10.0 mi ESE 12.7 mph 17.3 mph N/A   Clear
4:51 PM 82.9 °F 44.1 °F 25% 30.16 in 10.0 mi SE 12.7 mph - N/A   Clear
5:51 PM 82.0 °F 42.1 °F 24% 30.17 in 10.0 mi SE 12.7 mph - N/A   Clear
6:51 PM 80.1 °F 39.0 °F 23% 30.18 in 10.0 mi East 11.5 mph - N/A   Clear
7:51 PM 72.0 °F 39.0 °F 30% 30.20 in 10.0 mi ESE 8.1 mph - N/A   Clear
8:51 PM 69.1 °F 39.0 °F 33% 30.21 in 10.0 mi ESE 6.9 mph - N/A   Clear
9:51 PM 66.0 °F 37.9 °F 36% 30.23 in 10.0 mi SE 3.5 mph - N/A   Clear
10:51 PM 64.0 °F 39.0 °F 40% 30.24 in 10.0 mi SSE 5.8 mph - N/A   Clear